WB4FAY-4 Weather Reports


Display with metric or nautical units.
time (UTC)temp
F
wind
direction
speed
MPH
gust
MPH
rain 1hr
in
rain 24hr
in
rain mn
in
humidity
%
barometer
mb
20181118032117 47 0 0.0 0.0 0.00 0.00 0.00 92 1022.6
20181118031616 47 0 0.0 0.0 0.00 0.00 0.00 92 1022.5
20181118031117 47 0 0.0 0.0 0.00 0.00 0.00 92 1022.6
20181118030617 47 0 0.0 0.0 0.00 0.00 0.00 93 1022.7
20181118025617 47 0 0.0 0.0 0.00 0.00 0.00 93 1023.4
20181118025117 47 0 0.0 0.0 0.00 0.00 0.00 93 1023.3
20181118024617 48 0 0.0 0.0 0.00 0.00 0.00 93 1023.3
20181118024116 48 0 0.0 0.0 0.00 0.00 0.00 93 1023.3
20181118023617 48 0 0.0 0.0 0.00 0.00 0.00 93 1023.3
20181118023117 48 0 0.0 0.0 0.00 0.00 0.00 92 1023.3
20181118022617 48 0 0.0 0.0 0.00 0.00 0.00 92 1023.3
20181118021617 48 0 0.0 0.0 0.00 0.00 0.00 92 1023.3
20181118021117 49 0 0.0 0.0 0.00 0.00 0.00 91 1023.3
20181118020617 49 0 0.0 0.0 0.00 0.00 0.00 91 1023.2
20181118020116 49 0 0.0 0.0 0.00 0.00 0.00 91 1023.1
20181118015617 49 0 0.0 0.0 0.00 0.00 0.00 91 1023.2
20181118014617 49 0 0.0 0.0 0.00 0.00 0.00 90 1023.2
20181118013617 50 0 0.0 0.0 0.00 0.00 0.00 89 1023.1
20181118013117 50 0 0.0 0.0 0.00 0.00 0.00 89 1023.1
20181118012617 50 0 0.0 0.0 0.00 0.00 0.00 88 1023.0
20181118012117 50 0 0.0 0.0 0.00 0.00 0.00 88 1023.1
20181118011617 51 0 0.0 0.0 0.00 0.00 0.00 87 1023.0
20181118011117 51 0 0.0 0.0 0.00 0.00 0.00 86 1022.9
20181118010118 51 0 0.0 0.0 0.00 0.00 0.00 86 1022.9
20181118005617 51 0 0.0 0.0 0.00 0.00 0.00 86 1022.9
20181118005117 52 0 0.0 0.0 0.00 0.00 0.00 85 1022.8
20181118004617 52 0 0.0 0.0 0.00 0.00 0.00 85 1022.7
20181118004117 52 0 0.0 0.0 0.00 0.00 0.00 85 1022.8
20181118003616 52 0 0.0 0.0 0.00 0.00 0.00 84 1022.8
20181118003116 52 0 0.0 0.0 0.00 0.00 0.00 84 1022.8
20181118002117 53 0 0.0 0.0 0.00 0.00 0.00 83 1022.6
20181118001617 53 0 0.0 0.0 0.00 0.00 0.00 82 1022.7
20181118001117 53 0 0.0 0.0 0.00 0.00 0.00 82 1022.7
20181118000620 53 0 0.0 0.0 0.00 0.00 0.00 81 1022.6
20181118000117 53 0 0.0 0.0 0.00 0.00 0.00 81 1022.6
20181117235116 54 0 0.0 0.0 0.00 0.00 0.00 80 1022.6
20181117234617 54 0 0.0 0.0 0.00 0.00 0.00 79 1022.6
20181117234117 54 0 0.0 0.0 0.00 0.00 0.00 79 1022.5
20181117233617 55 0 0.0 0.0 0.00 0.00 0.00 78 1022.4
20181117233116 55 0 0.0 0.0 0.00 0.00 0.00 77 1022.3
20181117232617 55 0 0.0 0.0 0.00 0.00 0.00 77 1022.3
20181117232117 56 0 0.0 0.0 0.00 0.00 0.00 76 1022.4
20181117231617 56 0 0.0 0.0 0.00 0.00 0.00 75 1022.4
20181117231116 56 0 0.0 0.0 0.00 0.00 0.00 74 1022.3
20181117230117 57 0 0.0 0.0 0.00 0.00 0.00 73 1022.5
20181117225617 58 0 0.0 0.0 0.00 0.00 0.00 72 1022.5
20181117225116 58 0 0.0 0.0 0.00 0.00 0.00 71 1022.5
20181117224116 59 0 0.0 0.0 0.00 0.00 0.00 70 1022.5
20181117223617 59 0 0.0 0.0 0.00 0.00 0.00 70 1022.6
20181117223117 60 0 0.0 0.0 0.00 0.00 0.00 69 1022.6
20181117222617 60 0 0.0 0.0 0.00 0.00 0.00 68 1022.5
20181117222117 60 0 0.0 0.0 0.00 0.00 0.00 68 1022.5
20181117221617 61 0 0.0 0.0 0.00 0.00 0.00 67 1022.5
20181117221117 61 0 0.0 0.0 0.00 0.00 0.00 65 1022.6
20181117220117 62 0 0.0 0.0 0.00 0.00 0.00 63 1022.5
20181117215616 62 0 0.0 0.0 0.00 0.00 0.00 61 1022.4
20181117215117 63 0 0.0 0.0 0.00 0.00 0.00 61 1022.5
20181117214617 63 0 0.0 0.0 0.00 0.00 0.00 62 1022.5
20181117213617 63 0 0.0 0.0 0.00 0.00 0.00 60 1022.4
20181117213117 63 0 0.0 0.0 0.00 0.00 0.00 57 1022.4
20181117212617 64 0 0.0 0.0 0.00 0.00 0.00 56 1022.4
20181117212117 64 0 0.0 0.0 0.00 0.00 0.00 56 1022.4
20181117211617 64 0 0.0 0.0 0.00 0.00 0.00 55 1022.4
20181117211117 64 330 0.0 2.0 0.00 0.00 0.00 53 1022.4
20181117210617 64 354 0.0 2.0 0.00 0.00 0.00 54 1022.5
20181117210117 64 0 0.0 0.0 0.00 0.00 0.00 53 1022.5
20181117205616 64 0 0.0 0.0 0.00 0.00 0.00 51 1022.5
20181117205118 65 0 0.0 0.0 0.00 0.00 0.00 52 1022.4
20181117204617 65 0 0.0 0.0 0.00 0.00 0.00 51 1022.2
20181117204117 65 0 0.0 0.0 0.00 0.00 0.00 50 1022.2
20181117203617 65 309 0.0 1.0 0.00 0.00 0.00 52 1022.3
20181117202617 65 0 0.0 0.0 0.00 0.00 0.00 50 1022.3
20181117202117 65 353 0.0 6.0 0.00 0.00 0.00 51 1022.3
20181117201617 65 0 0.0 0.0 0.00 0.00 0.00 52 1022.3
20181117201116 65 0 0.0 0.0 0.00 0.00 0.00 52 1022.4
20181117200617 64 0 0.0 0.0 0.00 0.00 0.00 52 1022.5
20181117200117 64 270 0.0 2.0 0.00 0.00 0.00 51 1022.5
20181117195617 64 295 1.0 2.0 0.00 0.00 0.00 51 1022.5
20181117195117 64 243 0.0 3.0 0.00 0.00 0.00 52 1022.5
20181117194617 64 257 0.0 3.0 0.00 0.00 0.00 52 1022.5
20181117194117 64 353 0.0 3.0 0.00 0.00 0.00 51 1022.6
20181117193617 64 328 0.0 5.0 0.00 0.00 0.00 50 1022.6
20181117192617 65 199 0.0 2.0 0.00 0.00 0.00 52 1022.7
20181117192117 65 0 0.0 0.0 0.00 0.00 0.00 53 1022.7
20181117191617 64 342 0.0 4.0 0.00 0.00 0.00 52 1022.7
20181117191117 64 0 0.0 0.0 0.00 0.00 0.00 52 1022.7
20181117190617 64 0 0.0 0.0 0.00 0.00 0.00 53 1022.9
20181117185617 64 282 0.0 2.0 0.00 0.00 0.00 52 1022.9
20181117184117 65 202 3.0 2.0 0.00 0.00 0.00 51 1022.9
20181117183616 65 179 0.0 4.0 0.00 0.00 0.00 51 1023.0
20181117183116 64 196 0.0 3.0 0.00 0.00 0.00 51 1023.1
20181117182617 64 191 3.0 3.0 0.00 0.00 0.00 51 1023.1
20181117182117 64 4 0.0 3.0 0.00 0.00 0.00 53 1023.2
20181117181617 64 335 0.0 3.0 0.00 0.00 0.00 50 1023.3
20181117181117 64 340 1.0 6.0 0.00 0.00 0.00 52 1023.4
20181117180617 64 31 4.0 4.0 0.00 0.00 0.00 51 1023.4
20181117180117 64 184 0.0 4.0 0.00 0.00 0.00 50 1023.5
20181117175617 64 175 0.0 5.0 0.00 0.00 0.00 53 1023.6
20181117175117 64 178 0.0 7.0 0.00 0.00 0.00 52 1023.7
20181117174616 63 200 1.0 4.0 0.00 0.00 0.00 51 1023.7
20181117174117 63 191 0.0 4.0 0.00 0.00 0.00 52 1023.9
20181117173617 62 347 3.0 4.0 0.00 0.00 0.00 51 1024.0
20181117173117 62 322 0.0 7.0 0.00 0.00 0.00 51 1024.2
20181117172616 62 343 4.0 6.0 0.00 0.00 0.00 54 1024.2
20181117171617 61 282 1.0 9.0 0.00 0.00 0.00 52 1024.2
20181117165617 60 138 1.0 4.0 0.00 0.00 0.00 62 1024.2
20181117165117 59 285 1.0 3.0 0.00 0.00 0.00 65 1024.3
20181117164617 59 359 1.0 2.0 0.00 0.00 0.00 67 1024.4
20181117163617 59 0 0.0 0.0 0.00 0.00 0.00 72 1024.4
20181117162616 57 0 0.0 0.0 0.00 0.00 0.00 74 1024.6
20181117162117 57 0 0.0 0.0 0.00 0.00 0.00 77 1024.6
20181117161617 56 0 0.0 0.0 0.00 0.00 0.00 79 1024.7
20181117161116 55 0 0.0 0.0 0.00 0.00 0.00 79 1024.8
20181117160617 55 0 0.0 0.0 0.00 0.00 0.00 82 1024.8
20181117160117 54 0 0.0 0.0 0.00 0.00 0.00 84 1024.8
20181117154616 52 0 0.0 0.0 0.00 0.00 0.00 91 1024.7
20181117153617 50 0 0.0 0.0 0.00 0.00 0.00 94 1024.8
20181117153117 50 0 0.0 0.0 0.00 0.00 0.00 95 1024.8
20181117152617 49 47 0.0 1.0 0.00 0.00 0.00 95 1024.8
20181117152117 48 0 0.0 0.0 0.00 0.00 0.00 95 1024.8
20181117151617 48 0 0.0 0.0 0.00 0.00 0.00 96 1024.8
20181117151116 47 61 0.0 2.0 0.00 0.00 0.00 95 1024.8
20181117150617 47 55 0.0 2.0 0.00 0.00 0.00 95 1024.8
20181117145617 46 0 0.0 0.0 0.00 0.00 0.00 96 1024.8
20181117145116 46 0 0.0 0.0 0.00 0.00 0.00 96 1024.8
20181117144616 46 88 0.0 2.0 0.00 0.00 0.00 96 1024.8
20181117144117 46 0 0.0 0.0 0.00 0.00 0.00 96 1024.8
20181117143617 45 0 0.0 0.0 0.00 0.00 0.00 96 1024.9
20181117143118 44 0 0.0 0.0 0.00 0.00 0.00 96 1024.8
20181117142616 44 0 0.0 0.0 0.00 0.00 0.00 96 1024.8
20181117142117 43 0 0.0 0.0 0.00 0.00 0.00 97 1024.7
20181117141117 41 0 0.0 0.0 0.00 0.00 0.00 97 1024.7
20181117140616 41 0 0.0 0.0 0.00 0.00 0.00 97 1024.6
20181117140117 40 0 0.0 0.0 0.00 0.00 0.00 97 1024.7
20181117135618 40 0 0.0 0.0 0.00 0.00 0.00 97 1024.6
20181117135117 39 0 0.0 0.0 0.00 0.00 0.00 97 1024.5
20181117134617 39 0 0.0 0.0 0.00 0.00 0.00 96 1024.5
20181117133617 39 0 0.0 0.0 0.00 0.00 0.00 97 1024.4
20181117133117 39 0 0.0 0.0 0.00 0.00 0.00 96 1024.4
20181117132617 39 0 0.0 0.0 0.00 0.00 0.00 97 1024.3
20181117132117 38 0 0.0 0.0 0.00 0.00 0.00 97 1024.3
20181117131617 38 0 0.0 0.0 0.00 0.00 0.00 97 1024.3
20181117131117 38 0 0.0 0.0 0.00 0.00 0.00 97 1024.3
20181117130117 38 0 0.0 0.0 0.00 0.00 0.00 96 1023.9
20181117125616 38 0 0.0 0.0 0.00 0.00 0.00 97 1023.8
20181117125117 38 0 0.0 0.0 0.00 0.00 0.00 97 1023.8
20181117124617 38 0 0.0 0.0 0.00 0.00 0.00 96 1023.7
20181117124117 38 0 0.0 0.0 0.00 0.00 0.00 97 1023.7
20181117123616 38 0 0.0 0.0 0.00 0.00 0.00 97 1023.5
20181117123117 38 0 0.0 0.0 0.00 0.00 0.00 96 1023.6
20181117122617 38 0 0.0 0.0 0.00 0.00 0.00 97 1023.5
20181117122117 38 0 0.0 0.0 0.00 0.00 0.00 97 1023.5
20181117121617 38 0 0.0 0.0 0.00 0.00 0.00 97 1023.6
20181117121117 38 0 0.0 0.0 0.00 0.00 0.00 97 1023.5
20181117120617 38 0 0.0 0.0 0.00 0.00 0.00 97 1023.5
20181117120117 38 0 0.0 0.0 0.00 0.00 0.00 97 1023.5
20181117115117 38 0 0.0 0.0 0.00 0.00 0.00 97 1022.7
20181117114616 38 0 0.0 0.0 0.00 0.00 0.00 96 1022.8
20181117114117 38 0 0.0 0.0 0.00 0.00 0.00 97 1023.5
20181117113617 38 0 0.0 0.0 0.00 0.00 0.00 97 1023.5
20181117113117 38 0 0.0 0.0 0.00 0.00 0.00 97 1023.5
20181117112616 38 0 0.0 0.0 0.00 0.00 0.00 97 1023.6
20181117112116 38 0 0.0 0.0 0.00 0.00 0.00 97 1023.5
20181117111617 38 0 0.0 0.0 0.00 0.00 0.00 97 1023.6
20181117111117 38 0 0.0 0.0 0.00 0.00 0.00 97 1023.5
20181117110616 38 0 0.0 0.0 0.00 0.00 0.00 97 1023.4
20181117110116 38 0 0.0 0.0 0.00 0.00 0.00 97 1023.5
20181117105617 38 0 0.0 0.0 0.00 0.00 0.00 97 1023.5
20181117104617 38 0 0.0 0.0 0.00 0.00 0.00 97 1023.5
20181117104116 38 0 0.0 0.0 0.00 0.00 0.00 97 1023.5
20181117103617 38 0 0.0 0.0 0.00 0.00 0.00 97 1023.5
20181117103117 38 0 0.0 0.0 0.00 0.00 0.00 97 1023.5
20181117102617 38 0 0.0 0.0 0.00 0.00 0.00 97 1023.4
20181117102116 38 0 0.0 0.0 0.00 0.00 0.00 97 1023.4
20181117101617 39 0 0.0 0.0 0.00 0.00 0.00 97 1023.4
20181117101117 39 0 0.0 0.0 0.00 0.00 0.00 97 1023.4
20181117100617 39 0 0.0 0.0 0.00 0.00 0.00 97 1023.4
20181117100117 39 0 0.0 0.0 0.00 0.00 0.00 97 1023.4
20181117095617 39 0 0.0 0.0 0.00 0.00 0.00 97 1023.3
20181117095117 39 0 0.0 0.0 0.00 0.00 0.00 97 1023.3
20181117094117 39 0 0.0 0.0 0.00 0.00 0.00 97 1023.2
20181117093616 39 0 0.0 0.0 0.00 0.00 0.00 97 1023.1
20181117092617 39 0 0.0 0.0 0.00 0.00 0.00 97 1023.1
20181117092117 39 0 0.0 0.0 0.00 0.00 0.00 97 1023.0
20181117091617 39 0 0.0 0.0 0.00 0.00 0.00 97 1023.0
20181117091116 39 0 0.0 0.0 0.00 0.00 0.00 97 1023.0
20181117090617 39 0 0.0 0.0 0.00 0.00 0.00 97 1023.0
20181117090117 39 0 0.0 0.0 0.00 0.00 0.00 96 1022.9
20181117085616 39 0 0.0 0.0 0.00 0.00 0.00 96 1022.8
20181117085116 39 0 0.0 0.0 0.00 0.00 0.00 96 1022.8
20181117084617 39 0 0.0 0.0 0.00 0.00 0.00 96 1022.9
20181117084117 39 0 0.0 0.0 0.00 0.00 0.00 96 1022.8
20181117083617 39 0 0.0 0.0 0.00 0.00 0.00 96 1022.8
20181117083117 39 0 0.0 0.0 0.00 0.00 0.00 96 1022.9
20181117082617 39 0 0.0 0.0 0.00 0.00 0.00 96 1022.9
20181117082117 40 0 0.0 0.0 0.00 0.00 0.00 96 1023.0
20181117081617 40 0 0.0 0.0 0.00 0.00 0.00 96 1023.0
20181117081117 40 0 0.0 0.0 0.00 0.00 0.00 96 1023.0
20181117080617 40 0 0.0 0.0 0.00 0.00 0.00 96 1023.0
20181117080117 40 0 0.0 0.0 0.00 0.00 0.00 96 1022.9
20181117075617 40 0 0.0 0.0 0.00 0.00 0.00 96 1022.9
20181117075116 40 0 0.0 0.0 0.00 0.00 0.00 96 1022.9
20181117074617 40 0 0.0 0.0 0.00 0.00 0.00 96 1022.8
20181117074117 40 0 0.0 0.0 0.00 0.00 0.00 96 1022.8
20181117073617 40 0 0.0 0.0 0.00 0.00 0.00 96 1022.7
20181117073116 40 0 0.0 0.0 0.00 0.00 0.00 96 1022.7
20181117072117 40 0 0.0 0.0 0.00 0.00 0.00 96 1022.7
20181117071617 40 0 0.0 0.0 0.00 0.00 0.00 96 1022.7
20181117071117 40 0 0.0 0.0 0.00 0.00 0.00 96 1022.7
20181117070617 40 0 0.0 0.0 0.00 0.00 0.00 96 1022.8
20181117070117 40 0 0.0 0.0 0.00 0.00 0.00 96 1022.7
20181117064116 40 0 0.0 0.0 0.00 0.00 0.00 96 1022.8
20181117063117 40 0 0.0 0.0 0.00 0.00 0.00 96 1022.8
20181117062617 40 0 0.0 0.0 0.00 0.00 0.00 96 1022.8
20181117062117 40 0 0.0 0.0 0.00 0.00 0.00 96 1022.8
20181117061617 40 0 0.0 0.0 0.00 0.00 0.00 96 1022.8
20181117061117 40 0 0.0 0.0 0.00 0.00 0.00 96 1022.8
20181117060617 40 0 0.0 0.0 0.00 0.00 0.00 96 1022.8
20181117060117 40 0 0.0 0.0 0.00 0.00 0.00 96 1022.7
20181117055617 41 0 0.0 0.0 0.00 0.01 0.00 96 1022.6
20181117055117 41 0 0.0 0.0 0.00 0.01 0.00 96 1022.5
20181117054117 41 0 0.0 0.0 0.00 0.01 0.00 96 1022.6
20181117053616 41 0 0.0 0.0 0.00 0.01 0.00 96 1022.6
20181117053117 41 0 0.0 0.0 0.00 0.01 0.00 96 1022.6
20181117052617 41 0 0.0 0.0 0.00 0.01 0.00 96 1022.6
20181117051617 41 0 0.0 0.0 0.00 0.01 0.00 96 1022.6
20181117051117 41 0 0.0 0.0 0.00 0.01 0.00 96 1022.6
20181117050617 41 0 0.0 0.0 0.00 0.01 0.00 96 1022.6
20181117050117 41 0 0.0 0.0 0.00 0.01 0.00 96 1022.6
20181117045616 41 0 0.0 0.0 0.00 0.01 0.00 96 1022.6
20181117045117 41 0 0.0 0.0 0.00 0.01 0.00 96 1022.5
20181117044617 42 0 0.0 0.0 0.00 0.01 0.00 96 1022.4
20181117044117 42 0 0.0 0.0 0.00 0.01 0.00 1022.3
20181117043617 42 0 0.0 0.0 0.00 0.01 0.00 1022.3
20181117043117 42 0 0.0 0.0 0.00 0.01 0.00 1022.4
20181117042617 42 0 0.0 0.0 0.00 0.01 0.00 1022.3
20181117042117 42 0 0.0 0.0 0.00 0.01 0.00 1022.3
20181117041617 42 0 0.0 0.0 0.00 0.01 0.00 1022.2
20181117040117 42 0 0.0 0.0 0.00 0.01 0.00 1021.9
20181117035617 42 0 0.0 0.0 0.00 0.01 0.00 1021.8
20181117034617 42 0 0.0 0.0 0.00 0.01 0.00 95 1022.3
20181117034117 42 0 0.0 0.0 0.00 0.01 0.00 95 1022.4
20181117033117 42 0 0.0 0.0 0.00 0.01 0.00 95 1022.1
20181117032616 43 0 0.0 0.0 0.00 0.01 0.00 95 1022.1